WX4HP-13 Weather Reports


time (UTC)temp
C
wind
direction
speed
KPH
gust
KPH
rain 1hr
cm
rain 24hr
cm
rain mn
cm
humidity
%
barometer
mb
20260504180455 23 200 1.6 4.8 0.00 0.00 0.00 44 1014.4
20260504175955 23 193 1.6 8.0 0.00 0.00 0.00 44 1014.5
20260504175455 23 267 3.2 6.4 0.00 0.00 0.00 45 1014.4
20260504174954 23 257 3.2 9.7 0.00 0.00 0.00 44 1014.5
20260504174454 23 257 3.2 8.0 0.00 0.00 0.00 45 1014.5
20260504173956 23 237 3.2 9.7 0.00 0.00 0.00 46 1014.8
20260504173454 23 262 4.8 11.3 0.00 0.00 0.00 45 1014.8
20260504172955 23 244 3.2 8.0 0.00 0.00 0.00 46 1015.0
20260504172454 22 222 1.6 4.8 0.00 0.00 0.00 45 1015.0
20260504171955 22 267 4.8 9.7 0.00 0.00 0.00 47 1015.2
20260504171455 22 256 4.8 11.3 0.00 0.00 0.00 46 1015.3
20260504170954 22 271 6.4 14.5 0.00 0.00 0.00 46 1015.2
20260504170454 22 244 1.6 6.4 0.00 0.00 0.00 49 1015.3
20260504150956 20 237 3.2 11.3 0.00 0.00 0.00 50 1016.3
20260504150457 20 262 1.6 6.4 0.00 0.00 0.00 50 1016.3
20260504141028 17 248 3.2 8.0 0.00 0.00 0.00 54 1017.0
20260504140957 17 248 3.2 8.0 0.00 0.00 0.00 54 1017.0
20260504140457 17 244 1.6 9.7 0.00 0.00 0.00 57 1017.0
20260504130456 15 295 0.0 1.6 0.00 0.00 0.00 62 1017.4
20260504100456 5 0 0.0 0.0 0.00 0.00 0.00 96 1017.9
20260504081956 5 0 0.0 0.0 0.00 0.00 0.00 96 1017.6
20260504081456 5 0 0.0 0.0 0.00 0.00 0.00 96 1017.6
20260504080956 5 0 0.0 0.0 0.00 0.00 0.00 95 1017.7
20260504080455 5 0 0.0 0.0 0.00 0.00 0.00 95 1017.7
20260504050457 6 0 0.0 0.0 0.00 0.00 0.00 94 1018.7
20260504045957 6 0 0.0 0.0 0.00 0.00 0.00 93 1018.7
20260504045457 6 0 0.0 0.0 0.00 0.00 0.00 93 1018.7
20260504044957 6 0 0.0 0.0 0.00 0.00 0.00 93 1018.7
20260504044457 6 0 0.0 0.0 0.00 0.00 0.00 93 1018.8
20260504043956 6 0 0.0 0.0 0.00 0.00 0.00 93 1018.7
20260504043457 6 0 0.0 0.0 0.00 0.00 0.00 93 1018.8
20260504042956 6 0 0.0 0.0 0.00 0.00 0.00 93 1018.8
20260504042455 6 0 0.0 0.0 0.00 0.00 0.00 92 1018.8
20260504041956 7 0 0.0 0.0 0.00 0.00 0.00 92 1018.9
20260504041456 7 0 0.0 0.0 0.00 0.00 0.00 92 1018.9
20260504041107 7 0 0.0 0.0 0.00 0.00 0.00 92 1019.0
20260504040957 7 0 0.0 0.0 0.00 0.00 0.00 92 1019.0
20260504040457 7 0 0.0 0.0 0.00 0.00 0.00 92 1019.0
20260504040432 7 0 0.0 0.0 0.00 0.00 0.00 91 1019.1
20260504035955 7 0 0.0 0.0 0.00 0.00 0.00 91 1019.1
20260504035457 7 0 0.0 0.0 0.00 0.00 0.00 91 1019.0
20260504034957 7 0 0.0 0.0 0.00 0.00 0.00 91 1019.2
20260504034457 7 0 0.0 0.0 0.00 0.00 0.00 91 1019.1
20260504033956 7 0 0.0 0.0 0.00 0.00 0.00 91 1019.2
20260504033457 7 0 0.0 0.0 0.00 0.00 0.00 92 1019.3
20260504032958 7 0 0.0 0.0 0.00 0.00 0.00 91 1019.3
20260504032457 7 0 0.0 0.0 0.00 0.00 0.00 91 1019.5
20260504031956 7 0 0.0 0.0 0.00 0.00 0.00 91 1019.5
20260504031457 7 0 0.0 0.0 0.00 0.00 0.00 90 1019.5
20260504030956 7 0 0.0 0.0 0.00 0.00 0.00 90 1019.5
20260504030457 7 0 0.0 0.0 0.00 0.00 0.00 89 1019.3
20260504025957 7 0 0.0 0.0 0.00 0.00 0.00 89 1019.3
20260504025457 7 0 0.0 0.0 0.00 0.00 0.00 88 1019.2
20260504024956 7 0 0.0 0.0 0.00 0.00 0.00 87 1019.0
20260504024455 8 0 0.0 0.0 0.00 0.00 0.00 86 1018.9
20260504023957 -17 0 0.0 0.0 0.00 0.00 0.00 100
20260504023456 -17 0 0.0 0.0 0.00 0.00 0.00 100
20260504022956 -17 0 0.0 0.0 0.00 0.00 0.00 100
20260504022456 8 295 0.0 1.6 0.00 0.00 0.00 84 1018.7
20260504021956 8 0 0.0 0.0 0.00 0.00 0.00 83 1018.6
20260504021457 8 0 0.0 0.0 0.00 0.00 0.00 82 1018.5
20260504020955 8 0 0.0 0.0 0.00 0.00 0.00 80 1018.5
20260504020456 8 0 0.0 0.0 0.00 0.00 0.00 79 1018.4
20260504015955 9 0 0.0 0.0 0.00 0.00 0.00 80 1018.4
20260504015455 10 0 0.0 0.0 0.00 0.00 0.00 80 1018.3
20260504014455 10 0 0.0 0.0 0.00 0.00 0.00 73 1018.1
20260504013956 10 0 0.0 0.0 0.00 0.00 0.00 72 1018.2
20260504013455 10 0 0.0 0.0 0.00 0.00 0.00 71 1018.0
20260504012955 10 0 0.0 0.0 0.00 0.00 0.00 72 1017.9
20260504012456 11 0 0.0 0.0 0.00 0.00 0.00 68 1018.0
20260504011955 11 0 0.0 0.0 0.00 0.00 0.00 66 1017.9
20260504011456 11 0 0.0 0.0 0.00 0.00 0.00 65 1017.8
20260504010956 11 0 0.0 0.0 0.00 0.00 0.00 65 1017.8
20260504010457 11 0 0.0 0.0 0.00 0.00 0.00 66 1017.9
20260504005955 11 0 0.0 0.0 0.00 0.00 0.00 67 1017.8
20260504005457 12 0 0.0 0.0 0.00 0.00 0.00 68 1017.7
20260504004956 12 0 0.0 0.0 0.00 0.00 0.00 67 1017.5
20260504004644 12 0 0.0 0.0 0.00 0.00 0.00 63 1017.6
20260504004456 12 0 0.0 0.0 0.00 0.00 0.00 63 1017.6
20260504003958 13 0 0.0 0.0 0.00 0.00 0.00 62 1017.4
20260504003455 13 0 0.0 0.0 0.00 0.00 0.00 59 1017.4
20260504002955 13 0 0.0 0.0 0.00 0.00 0.00 55 1017.4
20260504002456 13 0 0.0 0.0 0.00 0.00 0.00 55 1017.3
20260504001957 14 0 0.0 0.0 0.00 0.00 0.00 55 1017.2
20260504001456 15 0 0.0 0.0 0.00 0.00 0.00 55 1017.2
20260504000955 15 0 0.0 0.0 0.00 0.00 0.00 54 1017.3
20260504000455 15 0 0.0 0.0 0.00 0.00 0.00 52 1017.1
20260503235955 16 0 0.0 0.0 0.00 0.00 0.00 48 1017.0
20260503235455 16 294 0.0 3.2 0.00 0.00 0.00 45 1016.9
20260503234956 17 0 0.0 0.0 0.00 0.00 0.00 43 1017.1
20260503234456 17 297 0.0 3.2 0.00 0.00 0.00 42 1017.0
20260503233957 17 282 0.0 4.8 0.00 0.00 0.00 42 1016.9
20260503233455 17 265 0.0 1.6 0.00 0.00 0.00 42 1017.0
20260503232956 17 222 0.0 1.6 0.00 0.00 0.00 41 1016.9
20260503232458 17 239 0.0 3.2 0.00 0.00 0.00 43 1017.0
20260503231956 18 294 0.0 4.8 0.00 0.00 0.00 40 1017.1
20260503231457 18 250 0.0 3.2 0.00 0.00 0.00 40 1016.9
20260503230956 18 260 1.6 6.4 0.00 0.00 0.00 38 1016.9
20260503230455 18 273 1.6 8.0 0.00 0.00 0.00 37 1016.8
20260503225955 19 264 1.6 6.4 0.00 0.00 0.00 36 1017.0
20260503225553 19 283 1.6 8.0 0.00 0.00 0.00 36 1016.8
20260503225455 19 283 1.6 8.0 0.00 0.00 0.00 36 1016.8
20260503224955 19 286 1.6 6.4 0.00 0.00 0.00 35 1016.9
20260503224455 19 65 0.0 3.2 0.00 0.00 0.00 36 1016.8
20260503223955 19 299 1.6 6.4 0.00 0.00 0.00 34 1017.0
20260503223455 19 317 3.2 9.7 0.00 0.00 0.00 33 1017.0
20260503222955 20 281 3.2 8.0 0.00 0.00 0.00 34 1017.0
20260503222455 20 301 1.6 8.0 0.00 0.00 0.00 33 1017.0
20260503221955 20 257 1.6 6.4 0.00 0.00 0.00 34 1017.0
20260503221455 20 312 3.2 9.7 0.00 0.00 0.00 34 1017.2
20260503220955 20 259 0.0 8.0 0.00 0.00 0.00 35 1017.2
20260503220455 19 247 4.8 11.3 0.00 0.00 0.00 34 1017.2
20260503215955 19 250 4.8 9.7 0.00 0.00 0.00 33 1017.2
20260503215456 19 259 6.4 14.5 0.00 0.00 0.00 33 1017.4
20260503214956 20 258 8.0 11.3 0.00 0.00 0.00 33 1017.3
20260503214455 20 250 3.2 8.0 0.00 0.00 0.00 34 1017.2
20260503213956 20 254 3.2 14.5 0.00 0.00 0.00 34 1017.3
20260503213456 20 260 3.2 9.7 0.00 0.00 0.00 34 1017.4
20260503212955 20 274 1.6 6.4 0.00 0.00 0.00 35 1017.4
20260503212454 20 256 3.2 9.7 0.00 0.00 0.00 35 1017.7
20260503211956 19 306 3.2 11.3 0.00 0.00 0.00 33 1017.6
20260503211456 20 293 4.8 14.5 0.00 0.00 0.00 33 1017.7
20260503210954 20 245 1.6 6.4 0.00 0.00 0.00 36 1017.7
20260503210455 20 265 3.2 9.7 0.00 0.00 0.00 36 1017.8
20260503205956 20 267 4.8 11.3 0.00 0.00 0.00 35 1017.7
20260503205455 20 249 1.6 8.0 0.00 0.00 0.00 35 1017.9
20260503204954 19 250 1.6 9.7 0.00 0.00 0.00 34 1018.0
20260503204456 19 261 6.4 14.5 0.00 0.00 0.00 33 1018.2
20260503203956 19 244 4.8 14.5 0.00 0.00 0.00 35 1018.1
20260503203455 20 241 6.4 14.5 0.00 0.00 0.00 32 1018.2
20260503202955 20 254 4.8 11.3 0.00 0.00 0.00 35 1018.2
20260503202455 20 249 3.2 11.3 0.00 0.00 0.00 35 1018.3
20260503201955 20 277 3.2 6.4 0.00 0.00 0.00 34 1018.3
20260503201454 19 257 4.8 17.7 0.00 0.00 0.00 34 1018.4
20260503200955 20 259 6.4 19.3 0.00 0.00 0.00 35 1018.5
20260503200456 20 258 4.8 14.5 0.00 0.00 0.00 36 1018.6
20260503195956 20 277 1.6 6.4 0.00 0.00 0.00 37 1018.8
20260503195458 20 255 4.8 11.3 0.00 0.00 0.00 38 1018.9
20260503194957 20 258 6.4 14.5 0.00 0.00 0.00 37 1019.0
20260503194457 20 269 3.2 16.1 0.00 0.00 0.00 37 1018.9
20260503193456 19 256 3.2 9.7 0.00 0.00 0.00 39 1019.2
20260503192955 19 267 3.2 9.7 0.00 0.00 0.00 39 1019.4
20260503192456 19 257 4.8 11.3 0.00 0.00 0.00 38 1019.5
20260503191956 18 261 3.2 6.4 0.00 0.00 0.00 41 1019.6
20260503191457 18 287 3.2 8.0 0.00 0.00 0.00 40 1019.7
20260503190957 19 267 3.2 6.4 0.00 0.00 0.00 42 1019.7
20260503190457 19 264 4.8 11.3 0.00 0.00 0.00 41 1019.7
20260503185955 18 280 1.6 6.4 0.00 0.00 0.00 41 1019.8
20260503185457 18 278 1.6 4.8 0.00 0.00 0.00 42 1019.9
20260503184957 18 246 3.2 8.0 0.00 0.00 0.00 45 1020.1
20260503184457 18 266 4.8 9.7 0.00 0.00 0.00 43 1020.2
20260503183956 18 255 3.2 8.0 0.00 0.00 0.00 38 1020.3
20260503183603 18 252 1.6 4.8 0.00 0.00 0.00 38 1020.3
20260503183457 18 252 1.6 4.8 0.00 0.00 0.00 38 1020.3
20260503182957 18 240 4.8 11.3 0.00 0.00 0.00 40 1020.3
20260503182500 18 253 4.8 8.0 0.00 0.00 0.00 38 1020.3
20260503181957 18 258 3.2 8.0 0.00 0.00 0.00 41 1020.4
20260503181455 18 298 3.2 8.0 0.00 0.00 0.00 41 1020.3
20260503180956 17 207 1.6 6.4 0.00 0.00 0.00 44 1020.5